Regional Weather Roundup
Issued by NWS

Home | Current Version | Previous Version | Text Only | Print | Product List | Glossary On
Versions: 1 2 3 4 5 6 7 8 9 10 11 12 13 14 15 16 17 18 19 20 21 22 23 24 25 26 27 28 29 30 31 32 33 34 35 36 37 38 39 40 41 42 43 44 45 46 47 48 49 50
000
ASUS46 KSEW 211210
RWRWA

WASHINGTON REGIONAL WEATHER ROUNDUP
NATIONAL WEATHER SERVICE SEATTLE WA
500 AM PDT TUE OCT 21 2014

NOTE:"FAIR" INDICATES FEW OR NO CLOUDS BELOW 12,000 FEET WITH NO
SIGNIFICANT WEATHER AND/OR OBSTRUCTIONS TO VISIBILITY.

WAZ505-507>509-211300-
SEATTLE, TACOMA, EVERETT, AND VICINITY

CITY           SKY/WX    TMP DP  RH WIND       PRES   REMARKS
EVERETT        CLOUDY    53  50  89 S15       29.82S
6HR MIN TEMP:  53; 6HR MAX TEMP:  54; 6HR PCP:  0.03;

BOEING FIELD   CLOUDY    56  51  84 SE6       29.84R
6HR MIN TEMP:  55; 6HR MAX TEMP:  58; 6HR PCP:  0.07;

RENTON         CLOUDY    53  53 100 CALM      29.84R
6HR MIN TEMP:  53; 6HR MAX TEMP:  55; 6HR PCP:  0.06;

SEATAC AIRPORT MOCLDY    54  50  86 S9        29.84S
6HR MIN TEMP:  54; 6HR MAX TEMP:  55; 6HR PCP:  0.03;

JBLM-MCCHORD   MOCLDY    53  52  99 S5        29.84S
6HR MIN TEMP:  50; 6HR MAX TEMP:  53; 6HR PCP:  0.01;

PUYALLUP       NOT AVBL
JBLM-FT LEWIS  CLOUDY    54  52  94 SE8       29.84R
6HR MIN TEMP:  50; 6HR MAX TEMP:  54; 6HR PCP:  0.01;

TACOMA NARROWS MOCLDY    54  50  86 S12       29.84R
6HR MIN TEMP:  54; 6HR MAX TEMP:  55; 6HR PCP:  0.02;

$$

WAZ001-503-506-510-514-515-211300-
NORTH INTERIOR

CITY           SKY/WX    TMP DP  RH WIND       PRES   REMARKS
BELLINGHAM     MOCLDY    55  50  82 SE14G22   29.78R
6HR MIN TEMP:  56; 6HR MAX TEMP:  58; 6HR PCP:  0.06;

FRIDAY HARBOR  CLOUDY    52  51  97 SE5       29.79R
6HR MIN TEMP:  51; 6HR MAX TEMP:  53; 6HR PCP: TRACE;

EASTSOUND      CLOUDY    55  54  94 S7        29.76R
PORT ANGELES   MOCLDY    52  46  80 CALM      29.78R
6HR MIN TEMP:  50; 6HR MAX TEMP:  55; 6HR PCP:  0.01;

NAS WHIDBEY    MOCLDY    57  52  83 SE15      29.79R
6HR MIN TEMP:  57; 6HR MAX TEMP:  59; 6HR PCP:  0.06;

BURLINGTON     CLOUDY   N/A N/A N/A SE7       29.80S
$$

WAZ020-022-039-040-504-511-512-211300-
SOUTHWEST INTERIOR

CITY           SKY/WX    TMP DP  RH WIND       PRES   REMARKS
SHELTON        LGT RAIN  52  51  97 SE5       29.80R FOG
6HR MIN TEMP:  52; 6HR MAX TEMP:  53; 6HR PCP:  0.03;

OLYMPIA        CLOUDY    54  51  90 S10       29.84S
6HR MIN TEMP:  52; 6HR MAX TEMP:  54; 6HR PCP:  0.05;

CHEHALIS       CLOUDY    55  54  94 S10       29.86R
KELSO          CLOUDY    55  48  76 S12       29.92R
6HR MIN TEMP:  55; 6HR MAX TEMP:  57; 6HR PCP:  0.03;

VANCOUVER      LGT RAIN  56  50  80 S5        29.92R
6HR MIN TEMP:  55; 6HR MAX TEMP:  57; 6HR PCP: TRACE;

SCAPPOOSE, OR  CLOUDY    54  52  93 S6        29.90R
6HR MIN TEMP:  48; 6HR MAX TEMP:  55; 6HR PCP:  0.09;

PORTLAND, OR   CLOUDY    56  51  84 S12       29.92R
6HR MIN TEMP:  54; 6HR MAX TEMP:  56; 6HR PCP: TRACE;

$$

WAZ021-516-517-211300-
WASHINGTON COAST

CITY           SKY/WX    TMP DP  RH WIND       PRES   REMARKS
FORKS          CLOUDY    53  53 100 CALM      29.78R
6HR MIN TEMP:  53; 6HR MAX TEMP:  55; 6HR PCP:  0.39;

HOQUIAM        CLOUDY    57  55  93 S12       29.82R
6HR MIN TEMP:  56; 6HR MAX TEMP:  58; 6HR PCP:  0.13;

ASTORIA, OR    MOCLDY    56  52  86 S9        29.85R
6HR MIN TEMP:  54; 6HR MAX TEMP:  57; 6HR PCP:  0.28;

$$

WAZ019-023-024-040-518-519-211300-
CASCADE MOUNTAINS AND COLUMBIA GORGE

CITY           SKY/WX    TMP DP  RH WIND       PRES   REMARKS
STAMPEDE PASS  NOT AVBL
TROUTDALE, OR  CLOUDY    57  49  74 SW8       29.91R
6HR MIN TEMP:  49; 6HR MAX TEMP:  58; 6HR PCP:  0.01;

THE DALLES, OR CLEAR     48  46  93 SE8       29.90R
6HR MIN TEMP:  46; 6HR MAX TEMP:  52;

$$

WAZ026-027-041>044-520-521-211300-
EAST SLOPES

CITY           SKY/WX    TMP DP  RH WIND       PRES   REMARKS
OMAK           CLOUDY    51  47  86 S7        29.81R
6HR MIN TEMP:  50; 6HR MAX TEMP:  54;

WENATCHEE      MOCLDY    51  47  86 CALM      29.83R
6HR MIN TEMP:  51; 6HR MAX TEMP:  54;

ELLENSBURG     FOG       42  40  92 E6        29.84R VSB 1/4
6HR MIN TEMP:  40; 6HR MAX TEMP:  49;

YAKIMA         CLEAR     39  38  96 CALM      29.87R FOG
6HR MIN TEMP:  38; 6HR MAX TEMP:  48;

$$

WAZ028-034-035-211300-
COLUMBIA BASIN

CITY           SKY/WX    TMP DP  RH WIND       PRES   REMARKS
EPHRATA        FOG       48  47  96 N3        29.83R VSB 1/2
6HR MIN TEMP:  44; 6HR MAX TEMP:  50;

MOSES LAKE     MOCLDY    49  47  93 S8        29.83R
6HR MIN TEMP:  45; 6HR MAX TEMP:  52;

PASCO          CLOUDY    54  49  83 SW13      29.87R
6HR MIN TEMP:  52; 6HR MAX TEMP:  57;

HERMISTON, OR  MOCLDY    49  45  86 CALM      29.88R
6HR MIN TEMP:  47; 6HR MAX TEMP:  54;

$$

WAZ036>038-211300-
NORTHEAST WASHINGTON

CITY           SKY/WX    TMP DP  RH WIND       PRES   REMARKS
SPOKANE GEIGER CLOUDY    48  45  89 S8        29.84S
6HR MIN TEMP:  48; 6HR MAX TEMP:  52; 6HR PCP:  0.01;

SPOKANE FELTS  CLOUDY    52  45  77 SW5       29.85S
6HR MIN TEMP:  51; 6HR MAX TEMP:  56; 6HR PCP:  0.01;

FAIRCHILD AFB  CLOUDY    47  45  93 S7        29.84S
6HR MIN TEMP:  47; 6HR MAX TEMP:  50; 6HR PCP: TRACE;

COEURDALENE,ID CLOUDY    48  45  87 SE5       29.85S
6HR MIN TEMP:  48; 6HR MAX TEMP:  55; 6HR PCP:  0.01;

DEER PARK      CLOUDY    49  46  90 S8        29.85R
6HR MIN TEMP:  49; 6HR MAX TEMP:  55; 6HR PCP:  0.02;

$$

WAZ029>033-211300-
SOUTHEAST WASHINGTON

CITY           SKY/WX    TMP DP  RH WIND       PRES   REMARKS
PULLMAN        CLOUDY    48  44  86 SE7       29.88S
6HR MIN TEMP:  48; 6HR MAX TEMP:  49; 6HR PCP: TRACE;

LEWISTON, ID   CLOUDY    52  49  89 E7        29.86F
6HR MIN TEMP:  52; 6HR MAX TEMP:  57; 6HR PCP:  0.04;

WALLA WALLA    CLOUDY    54  47  77 S8        29.88R
6HR MIN TEMP:  53; 6HR MAX TEMP:  56; 6HR PCP:  0.01;

PENDLETON, OR  MOCLDY    49  44  83 S3        29.88S
6HR MIN TEMP:  47; 6HR MAX TEMP:  51; 6HR PCP:  0.01;

$$


USA.gov is the U.S. government's official web portal to all federal, state and local government web resources and services.